START_TIME,STEP,MOV.,A46,t_acc.,A13,t_acc.,M47,t_acc.,A17,t_acc.,A28,t_acc.,M38,t_acc.
1979-07-01 12:19:07.860 ,7,0,,0,,0,,0,,0,,0,,0
1979-07-01 12:19:12.660 ,7,0,,0,,0,,0,,0,,0,,0
1979-07-01 12:19:17.460 ,7,0,,0,,0,,0,,0,,0,,0
1979-07-01 12:19:22.260 ,7,0,,0,0.,4.8,0.,4.8,,0,0.,4.8,0.,4.8
1979-07-01 12:19:27.060 ,7,0,,0,0.,4.8,0.,4.8,,0,0.,4.8,0.,4.8
1979-07-01 12:19:14.460 ,4,1,,0,0.,4.8,0.,4.8,,0,0.,4.8,0.,4.8
1979-07-01 12:19:19.260 ,4,1,,0,0.,4.8,0.,4.8,,0,0.,4.8,1.,4.8
1979-07-01 12:19:24.060 ,4,1,,0,2.,4.8,2097152.,4.8,,0,0.,4.8,0.,4.8
1979-07-01 12:19:28.860 ,4,1,,0,13.,4.8,1.,4.8,,0,0.,4.8,1.,4.8
1979-07-01 12:19:33.660 ,4,1,,0,4.,4.8,0.,4.8,,0,0.,4.8,0.,4.8
1979-07-01 12:19:38.460 ,0,0,,0,4.,4.8,0.,4.8,,0,0.,4.8,0.,4.8
1979-07-01 12:19:43.260 ,0,0,,0,0.,4.8,0.,4.8,,0,0.,4.8,0.,4.8
1979-07-01 12:19:48.060 ,0,0,,0,6.,4.8,0.,4.8,,0,0.,4.8,2097152.,4.8
1979-07-01 12:19:52.860 ,0,0,,0,0.,4.8,0.,4.8,,0,0.,4.8,0.,4.8
1979-07-01 12:19:57.660 ,0,0,,0,0.,4.8,0.,4.8,,0,1.,4.8,0.,4.8
1979-07-01 12:20:02.460 ,0,0,,0,0.,4.8,0.,4.8,,0,0.,4.8,1.,4.8
1979-07-01 12:20:07.260 ,0,0,,0,0.,4.8,0.,4.8,,0,0.,4.8,0.,4.8
1979-07-01 12:20:12.060 ,0,0,,0,,0,,0,,0,,0,,0
1979-07-01 12:20:16.860 ,0,0,,0,,0,,0,,0,,0,,0
1979-07-01 12:20:21.660 ,0,0,,0,10.,4.8,0.,4.8,,0,0.,4.8,0.,4.8
1979-07-01 12:20:26.460 ,0,0,,0,8.,4.8,0.,4.8,,0,0.,4.8,0.,4.8
1979-07-01 12:20:31.260 ,0,0,,0,7.,4.8,0.,4.8,,0,0.,4.8,0.,4.8
1979-07-01 12:20:36.060 ,0,0,,0,6.,4.8,0.,4.8,,0,0.,4.8,0.,4.8
1979-07-01 12:20:40.860 ,0,0,,0,0.,4.8,0.,4.8,,0,0.,4.8,0.,4.8
1979-07-01 12:20:45.660 ,0,0,,0,0.,4.8,0.,4.8,,0,0.,4.8,0.,4.8
1979-07-01 12:20:50.460 ,3,1,,0,0.,4.8,0.,4.8,,0,0.,4.8,0.,4.8
1979-07-01 12:20:55.260 ,3,1,,0,0.,4.8,0.,4.8,,0,0.,4.8,0.,4.8
1979-07-01 12:21:00.060 ,3,1,,0,2.,4.8,0.,4.8,,0,0.,4.8,0.,4.8
1979-07-01 12:21:04.860 ,3,1,,0,5.,4.8,0.,4.8,,0,0.,4.8,0.,4.8
1979-07-01 12:21:09.660 ,3,1,,0,3.,4.8,0.,4.8,,0,0.,4.8,0.,4.8
1979-07-01 12:21:14.460 ,0,1,,0,11.,4.8,0.,4.8,,0,0.,4.8,0.,4.8
1979-07-01 12:21:19.260 ,0,1,,0,7.,4.8,0.,4.8,,0,0.,4.8,0.,4.8
1979-07-01 12:21:24.060 ,0,1,,0,6.,4.8,0.,4.8,,0,0.,4.8,1.,4.8
1979-07-01 12:21:28.860 ,0,1,,0,0.,4.8,0.,4.8,,0,0.,4.8,0.,4.8
1979-07-01 12:21:33.660 ,0,1,,0,0.,4.8,0.,4.8,,0,0.,4.8,0.,4.8
1979-07-01 12:21:38.460 ,4,1,,0,0.,4.8,0.,4.8,,0,0.,4.8,1.,4.8
1979-07-01 12:21:43.260 ,4,1,,0,0.,4.8,0.,4.8,,0,0.,4.8,0.,4.8
1979-07-01 12:21:48.060 ,4,1,,0,0.,4.8,0.,4.8,,0,0.,4.8,0.,4.8
1979-07-01 12:21:52.860 ,4,1,,0,4.,4.8,0.,4.8,,0,0.,4.8,0.,4.8
1979-07-01 12:21:57.660 ,4,1,,0,8.,4.8,0.,4.8,,0,0.,4.8,0.,4.8
1979-07-01 12:22:02.460 ,7,1,,0,7.,4.8,0.,4.8,,0,0.,4.8,0.,4.8
1979-07-01 12:22:07.260 ,7,1,,0,8.,4.8,0.,4.8,,0,0.,4.8,0.,4.8
1979-07-01 12:22:12.060 ,7,1,,0,8.,4.8,0.,4.8,,0,0.,4.8,0.,4.8
1979-07-01 12:22:16.860 ,7,1,,0,0.,4.8,0.,4.8,,0,0.,4.8,0.,4.8
1979-07-01 12:22:21.660 ,7,1,,0,0.,4.8,0.,4.8,,0,0.,4.8,0.,4.8
1979-07-01 12:22:26.460 ,3,1,,0,0.,4.8,0.,4.8,,0,0.,4.8,0.,4.8
1979-07-01 12:22:31.260 ,3,1,,0,0.,4.8,0.,4.8,,0,0.,4.8,0.,4.8
1979-07-01 12:22:36.060 ,3,1,,0,1.,4.8,0.,4.8,,0,0.,4.8,0.,4.8
1979-07-01 12:22:40.860 ,3,1,,0,6.,4.8,0.,4.8,,0,0.,4.8,0.,4.8
1979-07-01 12:22:45.660 ,3,1,,0,8.,4.8,0.,4.8,,0,0.,4.8,1.,4.8
1979-07-01 12:22:50.460 ,0,1,,0,7.,4.8,0.,4.8,,0,0.,4.8,0.,4.8
1979-07-01 12:22:55.260 ,0,1,,0,4.,4.8,0.,4.8,,0,0.,4.8,1.,4.8
1979-07-01 12:23:00.060 ,0,1,,0,6.,4.8,0.,4.8,,0,0.,4.8,0.,4.8
1979-07-01 12:23:04.860 ,0,1,,0,0.,4.8,0.,4.8,,0,0.,4.8,0.,4.8
1979-07-01 12:23:09.660 ,0,1,,0,0.,4.8,0.,4.8,,0,0.,4.8,0.,4.8
1979-07-01 12:23:14.460 ,4,1,,0,0.,4.8,0.,4.8,,0,0.,4.8,0.,4.8
1979-07-01 12:23:19.260 ,4,1,,0,0.,4.8,0.,4.8,,0,0.,4.8,1.,4.8
1979-07-01 12:23:24.060 ,4,1,,0,1.,4.8,0.,4.8,,0,0.,4.8,0.,4.8
1979-07-01 12:23:28.860 ,4,1,,0,7.,4.8,0.,4.8,,0,0.,4.8,0.,4.8
1979-07-01 12:23:33.660 ,4,1,,0,5.,4.8,0.,4.8,,0,0.,4.8,0.,4.8
1979-07-01 12:23:38.460 ,7,1,,0,6.,4.8,0.,4.8,,0,1.,4.8,0.,4.8
1979-07-01 12:23:43.260 ,7,1,,0,8.,4.8,0.,4.8,,0,0.,4.8,0.,4.8
1979-07-01 12:23:48.060 ,7,1,,0,7.,4.8,0.,4.8,,0,0.,4.8,0.,4.8
1979-07-01 12:23:52.860 ,7,1,,0,0.,4.8,0.,4.8,,0,0.,4.8,0.,4.8
1979-07-01 12:23:57.660 ,7,1,,0,0.,4.8,0.,4.8,,0,0.,4.8,0.,4.8
1979-07-01 12:24:02.460 ,3,1,,0,0.,4.8,0.,4.8,,0,0.,4.8,0.,4.8
1979-07-01 12:24:07.260 ,3,1,,0,0.,4.8,0.,4.8,,0,0.,4.8,1.,4.8
1979-07-01 12:24:12.060 ,3,1,,0,1.,4.8,0.,4.8,,0,0.,4.8,0.,4.8
1979-07-01 12:24:16.860 ,3,1,,0,6.,4.8,0.,4.8,,0,0.,4.8,0.,4.8
1979-07-01 12:24:21.660 ,3,1,,0,6.,4.8,0.,4.8,,0,0.,4.8,1.,4.8
1979-07-01 12:24:26.460 ,0,1,,0,5.,4.8,0.,4.8,,0,0.,4.8,1.,4.8
1979-07-01 12:24:31.260 ,0,1,,0,6.,4.8,0.,4.8,,0,0.,4.8,0.,4.8
1979-07-01 12:24:36.060 ,0,1,,0,7.,4.8,0.,4.8,,0,0.,4.8,0.,4.8
1979-07-01 12:24:40.860 ,0,1,,0,0.,4.8,0.,4.8,,0,0.,4.8,0.,4.8
1979-07-01 12:24:45.660 ,0,1,,0,0.,4.8,0.,4.8,,0,0.,4.8,1.,4.8
1979-07-01 12:24:50.460 ,4,1,,0,0.,4.8,0.,4.8,,0,0.,4.8,0.,4.8
1979-07-01 12:24:55.260 ,4,1,,0,0.,4.8,0.,4.8,,0,0.,4.8,0.,4.8
1979-07-01 12:25:00.060 ,4,1,,0,2.,4.8,1.,4.8,,0,0.,4.8,1.,4.8
1979-07-01 12:25:04.860 ,4,1,,0,5.,4.8,0.,4.8,,0,0.,4.8,0.,4.8
1979-07-01 12:25:09.660 ,4,1,,0,10.,4.8,0.,4.8,,0,0.,4.8,0.,4.8
1979-07-01 12:25:14.460 ,7,1,,0,7.,4.8,0.,4.8,,0,0.,4.8,1.,4.8
1979-07-01 12:25:19.260 ,7,1,,0,7.,4.8,0.,4.8,,0,0.,4.8,1.,4.8
1979-07-01 12:25:24.060 ,7,1,,0,6.,4.8,0.,4.8,,0,0.,4.8,0.,4.8
1979-07-01 12:25:28.860 ,7,1,,0,0.,4.8,0.,4.8,,0,0.,4.8,0.,4.8
1979-07-01 12:25:33.660 ,7,1,,0,0.,4.8,0.,4.8,,0,0.,4.8,0.,4.8
1979-07-01 12:25:38.460 ,3,1,,0,1.,4.8,0.,4.8,,0,0.,4.8,1.,4.8
1979-07-01 12:25:43.260 ,3,1,,0,0.,4.8,0.,4.8,,0,0.,4.8,0.,4.8
1979-07-01 12:25:48.060 ,3,1,,0,2.,4.8,0.,4.8,,0,0.,4.8,0.,4.8
1979-07-01 12:25:52.860 ,3,1,,0,10.,4.8,0.,4.8,,0,0.,4.8,0.,4.8
1979-07-01 12:25:57.660 ,3,1,,0,7.,4.8,0.,4.8,,0,0.,4.8,0.,4.8
1979-07-01 12:26:02.460 ,0,1,,0,8.,4.8,0.,4.8,,0,0.,4.8,0.,4.8
1979-07-01 12:26:07.260 ,0,1,,0,7.,4.8,0.,4.8,,0,0.,4.8,0.,4.8
1979-07-01 12:26:12.060 ,0,1,,0,7.,4.8,0.,4.8,,0,0.,4.8,1.,4.8
1979-07-01 12:26:16.860 ,0,1,,0,0.,4.8,0.,4.8,,0,0.,4.8,0.,4.8
1979-07-01 12:26:21.660 ,0,1,,0,0.,4.8,0.,4.8,,0,0.,4.8,0.,4.8
1979-07-01 12:26:26.460 ,4,1,,0,0.,4.8,0.,4.8,,0,0.,4.8,0.,4.8
1979-07-01 12:26:31.260 ,4,1,,0,0.,4.8,0.,4.8,,0,0.,4.8,0.,4.8
1979-07-01 12:26:36.060 ,4,1,,0,4.,4.8,0.,4.8,,0,0.,4.8,0.,4.8
1979-07-01 12:26:40.860 ,4,1,,0,7.,4.8,0.,4.8,,0,0.,4.8,0.,4.8
1979-07-01 12:26:45.660 ,4,1,,0,12.,4.8,0.,4.8,,0,0.,4.8,2.,4.8
1979-07-01 12:26:50.460 ,7,1,,0,8.,4.8,0.,4.8,,0,0.,4.8,0.,4.8
1979-07-01 12:26:55.260 ,7,1,,0,9.,4.8,0.,4.8,,0,0.,4.8,0.,4.8
1979-07-01 12:27:00.060 ,7,1,,0,4.,4.8,0.,4.8,,0,0.,4.8,1.,4.8
1979-07-01 12:27:04.860 ,7,1,,0,0.,4.8,0.,4.8,,0,0.,4.8,0.,4.8
1979-07-01 12:27:09.660 ,7,1,,0,0.,4.8,0.,4.8,,0,0.,4.8,0.,4.8
1979-07-01 12:27:14.460 ,3,1,,0,0.,4.8,0.,4.8,,0,0.,4.8,1.,4.8
1979-07-01 12:27:19.260 ,3,1,,0,0.,4.8,0.,4.8,,0,0.,4.8,0.,4.8
1979-07-01 12:27:24.060 ,3,1,,0,2.,4.8,0.,4.8,,0,0.,4.8,0.,4.8
1979-07-01 12:27:28.860 ,3,1,,0,6.,4.8,0.,4.8,,0,0.,4.8,0.,4.8
1979-07-01 12:27:33.660 ,3,1,,0,6.,4.8,0.,4.8,,0,0.,4.8,0.,4.8
1979-07-01 12:27:38.460 ,0,1,,0,2.,4.8,0.,4.8,,0,0.,4.8,0.,4.8
1979-07-01 12:27:43.260 ,0,1,,0,8.,4.8,0.,4.8,,0,0.,4.8,1.,4.8
1979-07-01 12:27:48.060 ,0,1,,0,3.,4.8,0.,4.8,,0,0.,4.8,0.,4.8
1979-07-01 12:27:52.860 ,0,1,,0,0.,4.8,0.,4.8,,0,0.,4.8,1.,4.8
1979-07-01 12:27:57.660 ,0,1,,0,0.,4.8,0.,4.8,,0,0.,4.8,0.,4.8
1979-07-01 12:28:02.460 ,4,1,,0,0.,4.8,0.,4.8,,0,0.,4.8,0.,4.8
1979-07-01 12:28:07.260 ,4,1,,0,0.,4.8,0.,4.8,,0,0.,4.8,1.,4.8
1979-07-01 12:28:12.060 ,4,1,,0,2.,4.8,0.,4.8,,0,0.,4.8,0.,4.8
1979-07-01 12:28:16.860 ,4,1,,0,9.,4.8,0.,4.8,,0,0.,4.8,0.,4.8
1979-07-01 12:28:21.660 ,4,1,,0,6.,4.8,0.,4.8,,0,0.,4.8,0.,4.8
1979-07-01 12:28:26.460 ,7,1,,0,9.,4.8,0.,4.8,,0,0.,4.8,0.,4.8
1979-07-01 12:28:31.260 ,7,1,,0,6.,4.8,0.,4.8,,0,0.,4.8,0.,4.8
1979-07-01 12:28:36.060 ,7,1,,0,6.,4.8,0.,4.8,,0,0.,4.8,0.,4.8
1979-07-01 12:28:40.860 ,7,1,,0,0.,4.8,0.,4.8,,0,0.,4.8,0.,4.8
1979-07-01 12:28:45.660 ,7,1,,0,0.,4.8,0.,4.8,,0,0.,4.8,0.,4.8
1979-07-01 12:28:26.460 ,7,1,,0,9.,4.8,0.,4.8,,0,0.,4.8,0.,4.8
1979-07-01 12:28:31.260 ,7,1,,0,6.,4.8,0.,4.8,,0,0.,4.8,0.,4.8
1979-07-01 12:28:36.060 ,7,1,,0,6.,4.8,0.,4.8,,0,0.,4.8,0.,4.8
1979-07-01 12:28:40.860 ,7,1,,0,0.,4.8,0.,4.8,,0,0.,4.8,0.,4.8
1979-07-01 12:28:45.660 ,7,1,,0,0.,4.8,0.,4.8,,0,0.,4.8,0.,4.8
1979-07-01 12:28:50.460 ,3,1,,0,0.,4.8,0.,4.8,,0,0.,4.8,0.,4.8
1979-07-01 12:28:55.260 ,3,1,,0,0.,4.8,0.,4.8,,0,0.,4.8,1.,4.8
1979-07-01 12:29:00.060 ,3,1,,0,2.,4.8,0.,4.8,,0,0.,4.8,0.,4.8
1979-07-01 12:29:04.860 ,3,1,,0,4.,4.8,0.,4.8,,0,0.,4.8,0.,4.8
1979-07-01 12:29:09.660 ,3,1,,0,5.,4.8,0.,4.8,,0,0.,4.8,0.,4.8
1979-07-01 12:29:14.460 ,0,1,,0,6.,4.8,0.,4.8,,0,0.,4.8,0.,4.8
1979-07-01 12:29:19.260 ,0,1,,0,7.,4.8,0.,4.8,,0,0.,4.8,0.,4.8
1979-07-01 12:29:24.060 ,0,1,,0,5.,4.8,0.,4.8,,0,0.,4.8,1.,4.8
1979-07-01 12:29:28.860 ,0,1,,0,0.,4.8,0.,4.8,,0,0.,4.8,0.,4.8
1979-07-01 12:29:33.660 ,0,1,,0,0.,4.8,0.,4.8,,0,0.,4.8,0.,4.8
1979-07-01 12:29:38.460 ,0,0,,0,0.,4.8,0.,4.8,,0,0.,4.8,0.,4.8
1979-07-01 12:29:43.260 ,0,0,,0,0.,4.8,0.,4.8,,0,0.,4.8,0.,4.8
1979-07-01 12:29:48.060 ,0,0,,0,0.,4.8,0.,4.8,,0,0.,4.8,1.,4.8
1979-07-01 12:29:52.860 ,0,0,,0,9.,4.8,0.,4.8,,0,0.,4.8,0.,4.8
1979-07-01 12:29:57.660 ,0,0,,0,9.,4.8,0.,4.8,,0,0.,4.8,0.,4.8
1979-07-01 12:30:02.460 ,0,0,,0,14.,4.8,0.,4.8,,0,0.,4.8,1.,4.8
1979-07-01 12:30:07.260 ,0,0,,0,4.,4.8,0.,4.8,,0,0.,4.8,0.,4.8
1979-07-01 12:30:12.060 ,0,0,,0,5.,4.8,0.,4.8,,0,0.,4.8,0.,4.8
1979-07-01 12:30:16.860 ,0,0,,0,0.,4.8,0.,4.8,,0,0.,4.8,0.,4.8
1979-07-01 12:30:21.660 ,0,0,,0,0.,4.8,0.,4.8,,0,0.,4.8,0.,4.8
1979-07-01 12:30:26.460 ,5,0,,0,0.,4.8,0.,4.8,,0,0.,4.8,0.,4.8
1979-07-01 12:30:31.260 ,5,0,,0,0.,4.8,0.,4.8,,0,0.,4.8,0.,4.8
1979-07-01 12:30:36.060 ,5,0,,0,0.,4.8,0.,4.8,,0,0.,4.8,0.,4.8
1979-07-01 12:30:40.860 ,5,0,,0,7.,4.8,1.,4.8,,0,0.,4.8,0.,4.8
1979-07-01 12:30:45.660 ,5,0,,0,10.,4.8,0.,4.8,,0,0.,4.8,1.,4.8
1979-07-01 12:30:50.460 ,5,0,,0,14.,4.8,0.,4.8,,0,0.,4.8,0.,4.8
1979-07-01 12:30:55.260 ,5,0,,0,5.,4.8,0.,4.8,,0,0.,4.8,0.,4.8
1979-07-01 12:31:00.060 ,5,0,,0,6.,4.8,0.,4.8,,0,0.,4.8,0.,4.8
1979-07-01 12:31:04.860 ,5,0,,0,0.,4.8,0.,4.8,,0,0.,4.8,0.,4.8
1979-07-01 12:31:09.660 ,5,0,,0,0.,4.8,0.,4.8,,0,0.,4.8,0.,4.8
1979-07-01 12:31:14.460 ,4,0,,0,0.,4.8,0.,4.8,,0,0.,4.8,0.,4.8
1979-07-01 12:31:19.260 ,4,0,,0,0.,4.8,0.,4.8,,0,0.,4.8,0.,4.8
1979-07-01 12:31:24.060 ,4,0,,0,3.,4.8,0.,4.8,,0,0.,4.8,0.,4.8
1979-07-01 12:31:28.860 ,4,0,,0,9.,4.8,0.,4.8,,0,0.,4.8,0.,4.8
1979-07-01 12:31:33.660 ,4,0,,0,9.,4.8,0.,4.8,,0,0.,4.8,0.,4.8
1979-07-01 12:31:38.460 ,4,0,,0,8.,4.8,0.,4.8,,0,0.,4.8,1.,4.8
1979-07-01 12:31:43.260 ,4,0,,0,4.,4.8,0.,4.8,,0,0.,4.8,0.,4.8
1979-07-01 12:31:48.060 ,4,0,,0,6.,4.8,0.,4.8,,0,0.,4.8,1.,4.8
1979-07-01 12:31:52.860 ,4,0,,0,0.,4.8,0.,4.8,,0,0.,4.8,0.,4.8
1979-07-01 12:31:57.660 ,4,0,,0,0.,4.8,0.,4.8,,0,0.,4.8,1.,4.8
1979-07-01 12:32:02.460 ,3,0,,0,0.,4.8,0.,4.8,,0,0.,4.8,0.,4.8
1979-07-01 12:32:07.260 ,3,0,,0,0.,4.8,0.,4.8,,0,0.,4.8,0.,4.8
1979-07-01 12:32:12.060 ,3,0,,0,0.,4.8,0.,4.8,,0,0.,4.8,0.,4.8
1979-07-01 12:32:16.860 ,3,0,,0,4.,4.8,0.,4.8,,0,0.,4.8,0.,4.8
1979-07-01 12:32:21.660 ,3,0,,0,9.,4.8,0.,4.8,,0,0.,4.8,0.,4.8
1979-07-01 12:32:26.460 ,3,0,,0,6.,4.8,0.,4.8,,0,0.,4.8,0.,4.8
1979-07-01 12:32:31.260 ,3,0,,0,9.,4.8,0.,4.8,,0,0.,4.8,0.,4.8
1979-07-01 12:32:36.060 ,3,0,,0,7.,4.8,0.,4.8,,0,1.,4.8,2.,4.8
1979-07-01 12:32:40.860 ,3,0,,0,0.,4.8,0.,4.8,,0,0.,4.8,0.,4.8
1979-07-01 12:32:45.660 ,3,0,,0,0.,4.8,0.,4.8,,0,0.,4.8,0.,4.8
1979-07-01 12:32:50.460 ,2,0,,0,0.,4.8,0.,4.8,,0,0.,4.8,0.,4.8
1979-07-01 12:32:55.260 ,2,0,,0,0.,4.8,0.,4.8,,0,0.,4.8,0.,4.8
1979-07-01 12:33:00.060 ,2,0,,0,2.,4.8,0.,4.8,,0,0.,4.8,0.,4.8
1979-07-01 12:33:04.860 ,2,0,,0,6.,4.8,0.,4.8,,0,0.,4.8,0.,4.8
1979-07-01 12:33:09.660 ,2,0,,0,6.,4.8,0.,4.8,,0,0.,4.8,0.,4.8
1979-07-01 12:33:14.460 ,2,0,,0,6.,4.8,0.,4.8,,0,0.,4.8,0.,4.8
1979-07-01 12:33:19.260 ,2,0,,0,6.,4.8,0.,4.8,,0,0.,4.8,0.,4.8
1979-07-01 12:33:24.060 ,2,0,,0,7.,4.8,0.,4.8,,0,0.,4.8,1.,4.8
1979-07-01 12:33:28.860 ,2,0,,0,0.,4.8,0.,4.8,,0,0.,4.8,0.,4.8
1979-07-01 12:33:33.660 ,2,0,,0,0.,4.8,0.,4.8,,0,0.,4.8,0.,4.8
1979-07-01 12:33:38.460 ,1,0,,0,0.,4.8,0.,4.8,,0,0.,4.8,1.,4.8
1979-07-01 12:33:43.260 ,1,0,,0,0.,4.8,0.,4.8,,0,0.,4.8,2.,4.8
1979-07-01 12:33:48.060 ,1,0,,0,2.,4.8,0.,4.8,,0,0.,4.8,0.,4.8
1979-07-01 12:33:52.860 ,1,0,,0,3.,4.8,0.,4.8,,0,0.,4.8,0.,4.8
1979-07-01 12:33:57.660 ,1,0,,0,4.,4.8,0.,4.8,,0,0.,4.8,0.,4.8
1979-07-01 12:34:02.460 ,1,0,,0,7.,4.8,0.,4.8,,0,0.,4.8,0.,4.8
1979-07-01 12:34:07.260 ,1,0,,0,3.,4.8,0.,4.8,,0,0.,4.8,0.,4.8
1979-07-01 12:34:12.060 ,1,0,,0,5.,4.8,0.,4.8,,0,0.,4.8,0.,4.8
1979-07-01 12:34:16.860 ,1,0,,0,0.,4.8,0.,4.8,,0,0.,4.8,0.,4.8
1979-07-01 12:34:21.660 ,1,0,,0,0.,4.8,0.,4.8,,0,0.,4.8,0.,4.8
1979-07-01 12:34:26.460 ,0,0,,0,0.,4.8,0.,4.8,,0,0.,4.8,0.,4.8
1979-07-01 12:34:31.260 ,0,0,,0,0.,4.8,0.,4.8,,0,0.,4.8,0.,4.8
1979-07-01 12:34:36.060 ,0,0,,0,0.,4.8,0.,4.8,,0,0.,4.8,0.,4.8
1979-07-01 12:34:40.860 ,0,0,,0,6.,4.8,0.,4.8,,0,0.,4.8,0.,4.8
1979-07-01 12:34:45.660 ,0,0,,0,5.,4.8,0.,4.8,,0,0.,4.8,0.,4.8
1979-07-01 12:34:50.460 ,0,0,,0,3.,4.8,0.,4.8,,0,0.,4.8,0.,4.8
1979-07-01 12:34:55.260 ,0,0,,0,6.,4.8,0.,4.8,,0,1.,4.8,0.,4.8
1979-07-01 12:35:00.060 ,0,0,,0,4.,4.8,0.,4.8,,0,0.,4.8,0.,4.8
1979-07-01 12:35:04.860 ,0,0,,0,0.,4.8,0.,4.8,,0,0.,4.8,0.,4.8
1979-07-01 12:35:09.660 ,0,0,,0,0.,4.8,0.,4.8,,0,0.,4.8,0.,4.8
1979-07-01 12:35:14.460 ,0,0,,0,0.,4.8,0.,4.8,,0,0.,4.8,0.,4.8
1979-07-01 12:35:19.260 ,0,0,,0,0.,4.8,0.,4.8,,0,0.,4.8,0.,4.8
1979-07-01 12:35:24.060 ,0,0,,0,1.,4.8,0.,4.8,,0,0.,4.8,0.,4.8
1979-07-01 12:35:28.860 ,0,0,,0,3.,4.8,0.,4.8,,0,0.,4.8,0.,4.8
1979-07-01 12:35:33.660 ,0,0,,0,2.,4.8,0.,4.8,,0,0.,4.8,0.,4.8
1979-07-01 12:35:38.460 ,0,0,,0,5.,4.8,0.,4.8,,0,0.,4.8,0.,4.8
1979-07-01 12:35:43.260 ,0,0,,0,6.,4.8,0.,4.8,,0,0.,4.8,0.,4.8
1979-07-01 12:35:48.060 ,0,0,,0,2.,4.8,0.,4.8,,0,0.,4.8,0.,4.8
1979-07-01 12:35:52.860 ,0,0,,0,0.,4.8,0.,4.8,,0,0.,4.8,0.,4.8
1979-07-01 12:35:57.660 ,0,0,,0,0.,4.8,0.,4.8,,0,0.,4.8,0.,4.8
1979-07-01 12:36:02.460 ,1,0,,0,0.,4.8,0.,4.8,,0,0.,4.8,0.,4.8
1979-07-01 12:36:07.260 ,1,0,,0,0.,4.8,0.,4.8,,0,0.,4.8,0.,4.8
1979-07-01 12:36:12.060 ,1,0,,0,0.,4.8,0.,4.8,,0,0.,4.8,1.,4.8
1979-07-01 12:36:16.860 ,1,0,,0,2.,4.8,0.,4.8,,0,0.,4.8,0.,4.8
1979-07-01 12:36:21.660 ,1,0,,0,3.,4.8,0.,4.8,,0,0.,4.8,0.,4.8
1979-07-01 12:36:26.460 ,1,0,,0,7.,4.8,0.,4.8,,0,0.,4.8,0.,4.8
1979-07-01 12:36:31.260 ,1,0,,0,4.,4.8,0.,4.8,,0,0.,4.8,0.,4.8
1979-07-01 12:36:36.060 ,1,0,,0,2.,4.8,0.,4.8,,0,1.,4.8,1.,4.8
1979-07-01 12:36:40.860 ,1,0,,0,0.,4.8,0.,4.8,,0,0.,4.8,0.,4.8
1979-07-01 12:36:45.660 ,1,0,,0,0.,4.8,0.,4.8,,0,0.,4.8,1.,4.8
1979-07-01 12:36:50.460 ,2,0,,0,0.,4.8,0.,4.8,,0,0.,4.8,0.,4.8
1979-07-01 12:36:55.260 ,2,0,,0,0.,4.8,0.,4.8,,0,0.,4.8,0.,4.8
1979-07-01 12:37:00.060 ,2,0,,0,0.,4.8,0.,4.8,,0,0.,4.8,0.,4.8
1979-07-01 12:37:04.860 ,2,0,,0,4.,4.8,0.,4.8,,0,0.,4.8,0.,4.8
1979-07-01 12:37:09.660 ,2,0,,0,10.,4.8,0.,4.8,,0,0.,4.8,0.,4.8
1979-07-01 12:37:14.460 ,2,0,,0,10.,4.8,0.,4.8,,0,0.,4.8,0.,4.8
1979-07-01 12:37:19.260 ,2,0,,0,9.,4.8,0.,4.8,,0,0.,4.8,0.,4.8
1979-07-01 12:37:24.060 ,2,0,,0,4.,4.8,0.,4.8,,0,0.,4.8,0.,4.8
1979-07-01 12:37:28.860 ,2,0,,0,0.,4.8,0.,4.8,,0,0.,4.8,0.,4.8
1979-07-01 12:37:33.660 ,2,0,,0,0.,4.8,0.,4.8,,0,0.,4.8,1.,4.8
1979-07-01 12:37:38.460 ,3,0,,0,0.,4.8,0.,4.8,,0,0.,4.8,0.,4.8
1979-07-01 12:37:43.260 ,3,0,,0,0.,4.8,0.,4.8,,0,0.,4.8,0.,4.8
1979-07-01 12:37:48.060 ,3,0,,0,1.,4.8,0.,4.8,,0,0.,4.8,0.,4.8
1979-07-01 12:37:52.860 ,3,0,,0,2.,4.8,0.,4.8,,0,0.,4.8,0.,4.8
1979-07-01 12:37:57.660 ,3,0,,0,7.,4.8,0.,4.8,,0,0.,4.8,0.,4.8
1979-07-01 12:38:02.460 ,3,0,,0,3.,4.8,0.,4.8,,0,0.,4.8,0.,4.8
1979-07-01 12:38:07.260 ,3,0,,0,7.,4.8,0.,4.8,,0,0.,4.8,0.,4.8
1979-07-01 12:38:12.060 ,3,0,,0,4.,4.8,0.,4.8,,0,0.,4.8,0.,4.8
1979-07-01 12:38:16.860 ,3,0,,0,0.,4.8,0.,4.8,,0,0.,4.8,1.,4.8
1979-07-01 12:38:21.660 ,3,0,,0,0.,4.8,0.,4.8,,0,0.,4.8,0.,4.8
1979-07-01 12:38:26.460 ,4,0,,0,1.,4.8,0.,4.8,,0,0.,4.8,0.,4.8
1979-07-01 12:38:31.260 ,4,0,,0,0.,4.8,0.,4.8,,0,0.,4.8,0.,4.8
1979-07-01 12:38:36.060 ,4,0,,0,2.,4.8,0.,4.8,,0,0.,4.8,0.,4.8
1979-07-01 12:38:40.860 ,4,0,,0,3.,4.8,0.,4.8,,0,0.,4.8,1.,4.8
1979-07-01 12:38:45.660 ,4,0,,0,5.,4.8,0.,4.8,,0,0.,4.8,0.,4.8
1979-07-01 12:38:50.460 ,4,0,,0,4.,4.8,0.,4.8,,0,0.,4.8,0.,4.8
1979-07-01 12:38:55.260 ,4,0,,0,10.,4.8,0.,4.8,,0,0.,4.8,0.,4.8
1979-07-01 12:39:00.060 ,4,0,,0,4.,4.8,0.,4.8,,0,0.,4.8,0.,4.8
1979-07-01 12:39:04.860 ,4,0,,0,0.,4.8,0.,4.8,,0,0.,4.8,0.,4.8
1979-07-01 12:39:09.660 ,4,0,,0,0.,4.8,0.,4.8,,0,0.,4.8,0.,4.8
1979-07-01 12:39:14.460 ,5,0,,0,0.,4.8,0.,4.8,,0,0.,4.8,0.,4.8
1979-07-01 12:39:19.260 ,5,0,,0,0.,4.8,0.,4.8,,0,0.,4.8,1.,4.8
1979-07-01 12:39:24.060 ,5,0,,0,1.,4.8,0.,4.8,,0,0.,4.8,1.,4.8
1979-07-01 12:39:28.860 ,5,0,,0,5.,4.8,0.,4.8,,0,0.,4.8,0.,4.8
1979-07-01 12:39:33.660 ,5,0,,0,9.,4.8,0.,4.8,,0,0.,4.8,0.,4.8
1979-07-01 12:39:38.460 ,5,0,,0,6.,4.8,0.,4.8,,0,0.,4.8,0.,4.8
1979-07-01 12:39:43.260 ,5,0,,0,8.,4.8,0.,4.8,,0,0.,4.8,1.,4.8
1979-07-01 12:39:48.060 ,5,0,,0,5.,4.8,0.,4.8,,0,0.,4.8,0.,4.8
1979-07-01 12:39:52.860 ,5,0,,0,0.,4.8,0.,4.8,,0,0.,4.8,0.,4.8
1979-07-01 12:39:57.660 ,5,0,,0,0.,4.8,0.,4.8,,0,0.,4.8,0.,4.8
1979-07-01 12:40:02.460 ,6,0,,0,0.,4.8,0.,4.8,,0,0.,4.8,0.,4.8
1979-07-01 12:40:07.260 ,6,0,,0,0.,4.8,0.,4.8,,0,0.,4.8,0.,4.8
1979-07-01 12:40:12.060 ,6,0,,0,2.,4.8,0.,4.8,,0,0.,4.8,1.,4.8
1979-07-01 12:40:16.860 ,6,0,,0,9.,4.8,0.,4.8,,0,0.,4.8,0.,4.8
1979-07-01 12:40:21.660 ,6,0,,0,7.,4.8,0.,4.8,,0,0.,4.8,0.,4.8
1979-07-01 12:40:26.460 ,6,0,,0,9.,4.8,0.,4.8,,0,0.,4.8,0.,4.8
1979-07-01 12:40:31.260 ,6,0,,0,15.,4.8,0.,4.8,,0,0.,4.8,1.,4.8
1979-07-01 12:40:36.060 ,6,0,,0,6.,4.8,0.,4.8,,0,0.,4.8,0.,4.8
1979-07-01 12:40:40.860 ,6,0,,0,0.,4.8,0.,4.8,,0,0.,4.8,0.,4.8
1979-07-01 12:40:45.660 ,6,0,,0,0.,4.8,0.,4.8,,0,0.,4.8,0.,4.8
1979-07-01 12:40:50.460 ,7,0,,0,0.,4.8,0.,4.8,,0,0.,4.8,0.,4.8
1979-07-01 12:40:55.260 ,7,0,,0,0.,4.8,0.,4.8,,0,0.,4.8,0.,4.8
1979-07-01 12:41:00.060 ,7,0,,0,5.,4.8,0.,4.8,,0,0.,4.8,0.,4.8
1979-07-01 12:41:04.860 ,7,0,,0,11.,4.8,0.,4.8,,0,0.,4.8,0.,4.8
1979-07-01 12:41:09.660 ,7,0,,0,18.,4.8,0.,4.8,,0,0.,4.8,0.,4.8
1979-07-01 12:41:14.460 ,7,0,,0,17.,4.8,0.,4.8,,0,0.,4.8,0.,4.8
1979-07-01 12:41:19.260 ,7,0,,0,19.,4.8,0.,4.8,,0,0.,4.8,0.,4.8
1979-07-01 12:41:24.060 ,7,0,,0,15.,4.8,0.,4.8,,0,0.,4.8,0.,4.8
1979-07-01 12:41:28.860 ,7,0,,0,0.,4.8,0.,4.8,,0,0.,4.8,0.,4.8
1979-07-01 12:41:33.660 ,7,0,,0,0.,4.8,0.,4.8,,0,0.,4.8,0.,4.8
1979-07-01 12:41:38.460 ,7,0,,0,1.,4.8,0.,4.8,,0,0.,4.8,0.,4.8
1979-07-01 12:41:43.260 ,7,0,,0,0.,4.8,0.,4.8,,0,0.,4.8,0.,4.8
1979-07-01 12:41:48.060 ,7,0,,0,3.,4.8,0.,4.8,,0,0.,4.8,0.,4.8
1979-07-01 12:41:52.860 ,7,0,,0,16.,4.8,0.,4.8,,0,0.,4.8,0.,4.8
1979-07-01 12:41:57.660 ,7,0,,0,16.,4.8,0.,4.8,,0,0.,4.8,0.,4.8
1979-07-01 12:42:02.460 ,7,0,,0,21.,4.8,0.,4.8,,0,0.,4.8,0.,4.8
1979-07-01 12:42:07.260 ,7,0,,0,16.,4.8,0.,4.8,,0,0.,4.8,0.,4.8
1979-07-01 12:42:12.060 ,7,0,,0,13.,4.8,0.,4.8,,0,0.,4.8,1.,4.8
1979-07-01 12:42:16.860 ,7,0,,0,0.,4.8,0.,4.8,,0,0.,4.8,0.,4.8
1979-07-01 12:42:21.660 ,7,0,,0,0.,4.8,0.,4.8,,0,0.,4.8,1.,4.8
1979-07-01 12:42:26.460 ,6,0,,0,0.,4.8,0.,4.8,,0,0.,4.8,0.,4.8
1979-07-01 12:42:31.260 ,6,0,,0,0.,4.8,0.,4.8,,0,0.,4.8,0.,4.8
1979-07-01 12:42:36.060 ,6,0,,0,0.,4.8,0.,4.8,,0,0.,4.8,0.,4.8
1979-07-01 12:42:40.860 ,6,0,,0,8.,4.8,0.,4.8,,0,0.,4.8,0.,4.8
1979-07-01 12:42:45.660 ,6,0,,0,13.,4.8,0.,4.8,,0,0.,4.8,0.,4.8
1979-07-01 12:42:50.460 ,6,0,,0,9.,4.8,0.,4.8,,0,0.,4.8,1.,4.8
1979-07-01 12:42:55.260 ,6,0,,0,12.,4.8,0.,4.8,,0,0.,4.8,0.,4.8
1979-07-01 12:43:00.060 ,6,0,,0,11.,4.8,0.,4.8,,0,0.,4.8,0.,4.8
1979-07-01 12:43:04.860 ,6,0,,0,0.,4.8,0.,4.8,,0,0.,4.8,0.,4.8
1979-07-01 12:43:09.660 ,6,0,,0,0.,4.8,0.,4.8,,0,0.,4.8,0.,4.8
1979-07-01 12:43:14.460 ,5,0,,0,0.,4.8,0.,4.8,,0,0.,4.8,1.,4.8
1979-07-01 12:43:19.260 ,5,0,,0,0.,4.8,0.,4.8,,0,0.,4.8,0.,4.8
1979-07-01 12:43:24.060 ,5,0,,0,1.,4.8,0.,4.8,,0,0.,4.8,0.,4.8
1979-07-01 12:43:28.860 ,5,0,,0,8.,4.8,0.,4.8,,0,0.,4.8,0.,4.8
1979-07-01 12:43:33.660 ,5,0,,0,8.,4.8,0.,4.8,,0,0.,4.8,0.,4.8
1979-07-01 12:43:38.460 ,5,0,,0,9.,4.8,0.,4.8,,0,0.,4.8,0.,4.8
1979-07-01 12:43:43.260 ,5,0,,0,8.,4.8,0.,4.8,,0,0.,4.8,0.,4.8
1979-07-01 12:43:48.060 ,5,0,,0,6.,4.8,0.,4.8,,0,0.,4.8,0.,4.8
1979-07-01 12:43:52.860 ,5,0,,0,0.,4.8,0.,4.8,,0,0.,4.8,1.,4.8
1979-07-01 12:43:57.660 ,5,0,,0,0.,4.8,0.,4.8,,0,0.,4.8,0.,4.8
1979-07-01 12:44:02.460 ,4,0,,0,0.,4.8,0.,4.8,,0,0.,4.8,0.,4.8
1979-07-01 12:44:07.260 ,4,0,,0,0.,4.8,0.,4.8,,0,0.,4.8,1.,4.8
1979-07-01 12:44:12.060 ,4,0,,0,0.,4.8,0.,4.8,,0,0.,4.8,0.,4.8
1979-07-01 12:44:16.860 ,4,0,,0,7.,4.8,0.,4.8,,0,0.,4.8,0.,4.8
1979-07-01 12:44:21.660 ,4,0,,0,8.,4.8,0.,4.8,,0,0.,4.8,0.,4.8
1979-07-01 12:44:26.460 ,4,0,,0,10.,4.8,0.,4.8,,0,0.,4.8,0.,4.8
1979-07-01 12:44:31.260 ,4,0,,0,8.,4.8,0.,4.8,,0,0.,4.8,0.,4.8
1979-07-01 12:44:36.060 ,4,0,,0,4.,4.8,0.,4.8,,0,0.,4.8,2.,4.8
1979-07-01 12:44:40.860 ,4,0,,0,0.,4.8,0.,4.8,,0,0.,4.8,0.,4.8
1979-07-01 12:44:45.660 ,4,0,,0,0.,4.8,0.,4.8,,0,0.,4.8,0.,4.8
1979-07-01 12:44:50.460 ,3,0,,0,0.,4.8,0.,4.8,,0,0.,4.8,0.,4.8
1979-07-01 12:44:55.260 ,3,0,,0,0.,4.8,0.,4.8,,0,0.,4.8,2.,4.8
1979-07-01 12:45:00.060 ,3,0,,0,2.,4.8,0.,4.8,,0,0.,4.8,0.,4.8
1979-07-01 12:45:04.860 ,3,0,,0,6.,4.8,0.,4.8,,0,0.,4.8,1.,4.8
1979-07-01 12:45:09.660 ,3,0,,0,2.,4.8,0.,4.8,,0,0.,4.8,0.,4.8
1979-07-01 12:45:14.460 ,3,0,,0,6.,4.8,0.,4.8,,0,0.,4.8,0.,4.8
1979-07-01 12:45:19.260 ,3,0,,0,4.,4.8,0.,4.8,,0,0.,4.8,1.,4.8
1979-07-01 12:45:24.060 ,3,0,,0,5.,4.8,0.,4.8,,0,0.,4.8,1.,4.8
1979-07-01 12:45:28.860 ,3,0,,0,0.,4.8,0.,4.8,,0,0.,4.8,0.,4.8
1979-07-01 12:45:33.660 ,3,0,,0,0.,4.8,0.,4.8,,0,0.,4.8,0.,4.8
1979-07-01 12:45:38.460 ,2,0,,0,0.,4.8,0.,4.8,,0,0.,4.8,0.,4.8
1979-07-01 12:45:43.260 ,2,0,,0,0.,4.8,0.,4.8,,0,0.,4.8,0.,4.8
1979-07-01 12:45:48.060 ,2,0,,0,1.,4.8,0.,4.8,,0,0.,4.8,0.,4.8
1979-07-01 12:45:52.860 ,2,0,,0,5.,4.8,0.,4.8,,0,0.,4.8,0.,4.8
1979-07-01 12:45:57.660 ,2,0,,0,11.,4.8,0.,4.8,,0,0.,4.8,1.,4.8
1979-07-01 12:46:02.460 ,2,0,,0,9.,4.8,0.,4.8,,0,0.,4.8,0.,4.8
1979-07-01 12:46:07.260 ,2,0,,0,6.,4.8,0.,4.8,,0,0.,4.8,0.,4.8
1979-07-01 12:46:12.060 ,2,0,,0,7.,4.8,0.,4.8,,0,0.,4.8,0.,4.8
1979-07-01 12:46:16.860 ,2,0,,0,0.,4.8,0.,4.8,,0,0.,4.8,0.,4.8
1979-07-01 12:46:21.660 ,2,0,,0,0.,4.8,0.,4.8,,0,0.,4.8,0.,4.8
1979-07-01 12:46:26.460 ,1,0,,0,0.,4.8,0.,4.8,,0,0.,4.8,0.,4.8
1979-07-01 12:46:31.260 ,1,0,,0,0.,4.8,0.,4.8,,0,0.,4.8,1.,4.8
1979-07-01 12:46:36.060 ,1,0,,0,0.,4.8,0.,4.8,,0,0.,4.8,0.,4.8
1979-07-01 12:46:40.860 ,1,0,,0,5.,4.8,0.,4.8,,0,0.,4.8,0.,4.8
1979-07-01 12:46:45.660 ,1,0,,0,8.,4.8,0.,4.8,,0,0.,4.8,2.,4.8
1979-07-01 12:46:50.460 ,1,0,,0,5.,4.8,0.,4.8,,0,0.,4.8,0.,4.8
1979-07-01 12:46:55.260 ,1,0,,0,5.,4.8,0.,4.8,,0,0.,4.8,0.,4.8
1979-07-01 12:47:00.060 ,1,0,,0,7.,4.8,0.,4.8,,0,0.,4.8,0.,4.8
1979-07-01 12:47:04.860 ,1,0,,0,0.,4.8,0.,4.8,,0,0.,4.8,0.,4.8
1979-07-01 12:47:09.660 ,1,0,,0,0.,4.8,0.,4.8,,0,0.,4.8,0.,4.8
1979-07-01 12:47:14.460 ,0,0,,0,0.,4.8,0.,4.8,,0,0.,4.8,0.,4.8
1979-07-01 12:47:19.260 ,0,0,,0,0.,4.8,0.,4.8,,0,0.,4.8,0.,4.8
1979-07-01 12:47:24.060 ,0,0,,0,2.,4.8,0.,4.8,,0,0.,4.8,0.,4.8
1979-07-01 12:47:28.860 ,0,0,,0,5.,4.8,0.,4.8,,0,0.,4.8,1.,4.8
1979-07-01 12:47:33.660 ,0,0,,0,4.,4.8,0.,4.8,,0,0.,4.8,0.,4.8
1979-07-01 12:47:38.460 ,0,0,,0,4.,4.8,0.,4.8,,0,0.,4.8,0.,4.8
1979-07-01 12:47:43.260 ,0,0,,0,7.,4.8,0.,4.8,,0,0.,4.8,0.,4.8
1979-07-01 12:47:48.060 ,0,0,,0,1.,4.8,0.,4.8,,0,0.,4.8,0.,4.8
1979-07-01 12:47:52.860 ,0,0,,0,0.,4.8,0.,4.8,,0,0.,4.8,0.,4.8
1979-07-01 12:47:57.660 ,0,0,,0,0.,4.8,0.,4.8,,0,0.,4.8,0.,4.8
1979-07-01 12:48:02.460 ,0,0,,0,0.,4.8,0.,4.8,,0,0.,4.8,0.,4.8
1979-07-01 12:48:07.260 ,0,0,,0,0.,4.8,0.,4.8,,0,1.,4.8,0.,4.8
1979-07-01 12:48:12.060 ,0,0,,0,1.,4.8,0.,4.8,,0,1.,4.8,0.,4.8
1979-07-01 12:48:16.860 ,0,0,,0,1.,4.8,0.,4.8,,0,0.,4.8,0.,4.8